Location: Cortos
(40.7190°N, 4.5893°W)
Time: 19:58:19
(UTC+00:00)

Cosmos 2181 Rocket - Pass Details

Date: 05 July 2020
Orbit: 951 x 1015 km, 82.9° (Epoch: 05 August)

Event Time Altitude Azimuth Distance (km) Brightness Sun altitude
Rises 21:21:52 0° 358° (N) 3,727 7.9 -13.9°
Reaches altitude 10° 21:24:33 10° 5° (N) 2,765 7.0 -14.2°
Maximum altitude 21:30:37 46° 77° (ENE) 1,299 4.5 -15.0°
Enters shadow 21:34:16 23° 139° (SE) 1,957 5.0 -15.5°
